Powrót do katalogu

COSMOS 1867 COOLANT

AktywnyLEO
NORAD 39673·DEBRIS·🇷🇺 Russia

Wystrzelony Jul 10, 1987 z Baikonur Cosmodrome

Loading…

Następne Przeloty (najbliższe 24 godziny)

TLE

ŚwieżeSource: Space-Track

Epoka: Sep 13, 2026, 03:15 UTC

1 39673U 87060AL  26256.13579504  .00000138  00000-0  85549-4 0  9991
2 39673  65.0102 126.2711 0018235 282.0530  77.8512 14.33827623649517

Śledź COSMOS 1867 COOLANT w czasie rzeczywistym z AllMySat

Download on the App Store